Monticello, KY

11:33 AM EDT on April 27, 2017 (GMT -0400)
Wayne County

Weather History for KEKQ - January, 2013

Change the Weather History Date:

Tuesday, January 22, 2013

  Actual Average Record
Temperature  
Mean Temperature 20 °F -  
Max Temperature 25 °F 46 °F 71 °F (1974)
Min Temperature 14 °F 26 °F -8 °F (1961)
Degree Days  
Heating Degree Days 46    
Moisture  
Dew Point 1 °F    
Average Humidity 45    
Maximum Humidity 65    
Minimum Humidity 31    
Precipitation  
Precipitation 0.00 in - - ()
Sea Level Pressure  
Sea Level Pressure 30.41 in    
Wind  
Wind Speed 7 mph (NW)    
Max Wind Speed 12 mph    
Max Gust Speed -    
Averages and records for this station are not official NWS values.
T = Trace of Precipitation, MM = Missing Value Source: NWS Daily Summary

Daily Weather History Graph

Daily Weather History Graph

Search for Another Location

Airport or City:

Trip Planner

Search our weather history database for the weather conditions in past years. The results will help you decide how hot, cold, wet, or windy it might be!

Date:

Astronomy

Jan. 22, 2013 Rise Set
Actual Time 6:48 AM CST 4:54 PM CST
Civil Twilight 6:20 AM CST 5:22 PM CST
Nautical Twilight 5:48 AM CST 5:53 PM CST
Astronomical Twilight 5:18 AM CST 6:24 PM CST
Moon 1:17 PM CST (1/22) 3:08 AM CST (1/22)
Length of Visible Light 11h 01m
Length of Day
10h 06m
Waxing Gibbous, 83% of the Moon is Illuminated
Jan 22
Waxing Gibbous
Jan 26
Full
Feb 3
Last Quarter
Feb 10
New
Feb 17
First Quarter

Hourly Weather History & Observations

Time (CST) Temp. Windchill Dew Point Humidity Pressure Visibility Wind Dir Wind Speed Gust Speed Precip Events Conditions
12:56 AM 19.0 °F 6.8 °F 2.1 °F 48% 30.32 in - NW 11.5 mph - N/A   Mostly Cloudy
1:56 AM 17.1 °F 6.6 °F 2.1 °F 52% 30.34 in - NNW 8.1 mph - N/A   Clear
2:56 AM 15.1 °F 7.7 °F 4.1 °F 62% 30.35 in - NW 4.6 mph - N/A   Clear
3:56 AM 14.0 °F 5.1 °F 4.1 °F 65% 30.36 in - NW 5.8 mph - N/A   Clear
4:56 AM 15.1 °F 7.7 °F 5.0 °F 64% 30.38 in - NNW 4.6 mph - N/A   Clear
5:56 AM 14.0 °F 5.1 °F 3.0 °F 62% 30.40 in - NNW 5.8 mph - N/A   Clear
6:56 AM 15.1 °F 5.2 °F 3.0 °F 59% 30.42 in - NW 6.9 mph - N/A   Clear
7:56 AM 16.2 °F 6.5 °F 2.1 °F 54% 30.44 in - NW 6.9 mph - N/A   Clear
8:56 AM 18.1 °F 11.3 °F 2.1 °F 50% 30.46 in - WNW 4.6 mph - N/A   Clear
9:56 AM 19.0 °F 11.1 °F 1.0 °F 46% 30.48 in - Variable 5.8 mph - N/A   Clear
10:56 AM 21.0 °F 9.9 °F -1.8 °F 37% 30.47 in - NNW 10.4 mph - N/A   Clear
11:56 AM 23.0 °F 15.8 °F -2.9 °F 32% 30.42 in - Variable 5.8 mph - N/A   Clear
12:56 PM 25.2 °F 18.3 °F -1.8 °F 31% 30.40 in - NW 5.8 mph - N/A   Clear
1:56 PM 25.2 °F 17.3 °F -0.9 °F 32% 30.40 in - West 6.9 mph - N/A   Mostly Cloudy
2:56 PM 25.2 °F 18.3 °F -0.9 °F 32% 30.40 in - Variable 5.8 mph - N/A   Overcast
3:56 PM 24.1 °F 17.0 °F -2.9 °F 31% 30.40 in - WNW 5.8 mph - N/A   Mostly Cloudy
4:56 PM 24.1 °F 13.7 °F -1.8 °F 32% 30.41 in - NW 10.4 mph - N/A   Overcast
5:56 PM 23.0 °F 14.7 °F 1.0 °F 39% 30.43 in - WNW 6.9 mph - N/A   Overcast
6:56 PM 23.0 °F 14.7 °F 1.0 °F 39% 30.42 in - West 6.9 mph - N/A   Overcast
7:56 PM 23.0 °F 15.8 °F 3.0 °F 42% 30.41 in - WNW 5.8 mph - N/A   Overcast
8:56 PM 23.0 °F 17.0 °F 3.0 °F 42% 30.41 in - West 4.6 mph - N/A   Overcast
9:56 PM 23.0 °F 13.9 °F 2.1 °F 41% 30.42 in - West 8.1 mph - N/A   Overcast
10:56 PM 23.0 °F 17.0 °F 3.0 °F 42% 30.42 in - West 4.6 mph - N/A   Overcast
11:56 PM 23.0 °F 15.8 °F 5.0 °F 46% 30.42 in - NW 5.8 mph - N/A   Overcast